Location: *
(45.9500°N, 9.0833°E)
Time: 20:22:32
(UTC+00:00)

Tiros 1 - Pass Details

Date: 16 June 2021
Orbit: 630 x 664 km, 48.4° (Epoch: 05 August)

Event Time Altitude Azimuth Distance (km) Brightness Sun altitude
Rises 09:30:41 0° 191° (S) 2,909 10.7 57.8°
Reaches altitude 10° 09:33:55 10° 168° (SSE) 2,012 10.2 58.3°
Maximum altitude 09:36:27 15° 134° (SE) 1,734 10.2 58.6°
Drops below altitude 10° 09:38:59 10° 101° (E) 2,029 10.3 59.0°
Sets 09:42:15 0° 78° (ENE) 2,951 10.8 59.4°
